TimeEEST,TemperatureF,Dew PointF,Humidity,Sea Level PressureIn,VisibilityMPH,Wind Direction,Wind SpeedMPH,Gust SpeedMPH,PrecipitationIn,Events,Conditions,WindDirDegrees,DateUTC
12:20 AM,77.0,60.8,57,29.86,-9999.0,West,6.9,-,N/A,,Clear,280,2013-08-12 21:20:00
12:50 AM,75.2,62.6,65,29.83,-9999.0,WNW,9.2,-,N/A,,Clear,290,2013-08-12 21:50:00
1:20 AM,75.2,62.6,65,29.83,-9999.0,WNW,9.2,-,N/A,,Clear,290,2013-08-12 22:20:00
1:50 AM,75.2,60.8,61,29.83,-9999.0,WNW,9.2,-,N/A,,Clear,290,2013-08-12 22:50:00
2:20 AM,75.2,60.8,61,29.83,-9999.0,WNW,9.2,-,N/A,,Clear,290,2013-08-12 23:20:00
2:50 AM,75.2,60.8,61,29.83,-9999.0,West,6.9,-,N/A,,Clear,280,2013-08-12 23:50:00
3:20 AM,80.6,60.8,51,29.83,-9999.0,West,6.9,-,N/A,,Clear,280,2013-08-13 00:20:00
3:50 AM,75.2,62.6,65,29.80,-9999.0,WNW,9.2,-,N/A,,Clear,290,2013-08-13 00:50:00
4:20 AM,75.2,60.8,61,29.80,-9999.0,WNW,6.9,-,N/A,,Clear,290,2013-08-13 01:20:00
4:50 AM,75.2,62.6,65,29.80,-9999.0,West,6.9,-,N/A,,Clear,280,2013-08-13 01:50:00
5:20 AM,75.2,62.6,65,29.80,-9999.0,West,6.9,-,N/A,,Clear,280,2013-08-13 02:20:00
5:50 AM,75.2,62.6,65,29.80,-9999.0,WNW,6.9,-,N/A,,Clear,290,2013-08-13 02:50:00
6:20 AM,73.4,62.6,69,29.80,-9999.0,WNW,5.8,-,N/A,,Clear,290,2013-08-13 03:20:00
6:50 AM,71.6,60.8,69,29.83,-9999.0,WNW,5.8,-,N/A,,Clear,300,2013-08-13 03:50:00
7:20 AM,73.4,62.6,69,29.83,-9999.0,WNW,6.9,-,N/A,,Clear,300,2013-08-13 04:20:00
7:50 AM,77.0,62.6,61,29.83,-9999.0,WNW,5.8,-,N/A,,Clear,300,2013-08-13 04:50:00
8:20 AM,77.0,62.6,61,29.83,-9999.0,WNW,5.8,-,N/A,,Clear,300,2013-08-13 05:20:00
8:50 AM,80.6,60.8,51,29.83,-9999.0,NNW,13.8,-,N/A,,Clear,330,2013-08-13 05:50:00
9:20 AM,80.6,60.8,51,29.83,-9999.0,NNW,13.8,-,N/A,,Clear,330,2013-08-13 06:20:00
9:50 AM,82.4,60.8,48,29.83,-9999.0,NNW,13.8,-,N/A,,Clear,340,2013-08-13 06:50:00
10:20 AM,82.4,60.8,48,29.83,-9999.0,NNW,13.8,-,N/A,,Clear,340,2013-08-13 07:20:00
10:50 AM,84.2,59.0,42,29.83,-9999.0,NNW,13.8,-,N/A,,Clear,340,2013-08-13 07:50:00
11:20 AM,84.2,59.0,42,29.83,-9999.0,NNW,13.8,-,N/A,,Clear,340,2013-08-13 08:20:00
11:50 AM,86.0,57.2,37,29.83,-9999.0,NNW,17.3,-,N/A,,Clear,340,2013-08-13 08:50:00
12:20 PM,86.0,57.2,37,29.83,-9999.0,NNW,17.3,-,N/A,,Clear,340,2013-08-13 09:20:00
12:50 PM,86.0,55.4,35,29.83,-9999.0,NNW,15.0,-,N/A,,Clear,330,2013-08-13 09:50:00
1:20 PM,86.0,55.4,35,29.83,-9999.0,NNW,16.1,-,N/A,,Clear,340,2013-08-13 10:20:00
1:50 PM,86.0,57.2,37,29.83,-9999.0,NNW,15.0,-,N/A,,Clear,340,2013-08-13 10:50:00
2:20 PM,86.0,55.4,35,29.83,-9999.0,NNW,17.3,-,N/A,,Clear,340,2013-08-13 11:20:00
2:50 PM,84.2,57.2,40,29.83,-9999.0,NNW,13.8,-,N/A,,Clear,340,2013-08-13 11:50:00
3:20 PM,84.2,57.2,40,29.83,-9999.0,NNW,11.5,-,N/A,,Clear,340,2013-08-13 12:20:00
3:50 PM,84.2,55.4,37,29.83,-9999.0,NNW,11.5,-,N/A,,Clear,340,2013-08-13 12:50:00
4:20 PM,86.0,53.6,33,29.83,-9999.0,North,10.4,-,N/A,,Clear,350,2013-08-13 13:20:00
4:50 PM,86.0,55.4,35,29.80,-9999.0,NNW,11.5,-,N/A,,Clear,340,2013-08-13 13:50:00
5:20 PM,84.2,59.0,42,29.80,-9999.0,NNW,13.8,-,N/A,,Clear,340,2013-08-13 14:20:00
5:50 PM,84.2,60.8,45,29.80,-9999.0,North,11.5,-,N/A,,Clear,350,2013-08-13 14:50:00
6:20 PM,82.4,62.6,51,29.80,-9999.0,North,11.5,-,N/A,,Clear,350,2013-08-13 15:20:00
6:50 PM,82.4,62.6,51,29.80,-9999.0,NNW,11.5,-,N/A,,Clear,340,2013-08-13 15:50:00
7:20 PM,80.6,64.4,58,29.80,-9999.0,NNW,8.1,-,N/A,,Clear,340,2013-08-13 16:20:00
7:50 PM,80.6,64.4,58,29.80,-9999.0,NW,8.1,-,N/A,,Clear,320,2013-08-13 16:50:00
8:20 PM,80.6,62.6,54,29.80,-9999.0,NNW,15.0,-,N/A,,Clear,330,2013-08-13 17:20:00
8:50 PM,78.8,64.4,61,29.80,-9999.0,NW,9.2,-,N/A,,Clear,320,2013-08-13 17:50:00
9:20 PM,78.8,64.4,61,29.83,-9999.0,WNW,5.8,-,N/A,,Clear,300,2013-08-13 18:20:00
9:50 PM,77.0,62.6,61,29.83,-9999.0,West,5.8,-,N/A,,Clear,280,2013-08-13 18:50:00
10:20 PM,77.0,60.8,57,29.83,-9999.0,West,5.8,-,N/A,,Clear,280,2013-08-13 19:20:00
10:50 PM,77.0,60.8,57,29.83,-9999.0,West,6.9,-,N/A,,Clear,280,2013-08-13 19:50:00
11:20 PM,77.0,59.0,54,29.83,-9999.0,West,5.8,-,N/A,,Clear,280,2013-08-13 20:20:00
11:50 PM,77.0,59.0,54,29.80,-9999.0,West,6.9,-,N/A,,Clear,280,2013-08-13 20:50:00